Location: 10033 Water Well
(34.0865°N, 106.8959°W)
Time: 17:14:56
(UTC+00:00)

Cosmos 1992 Rocket - Pass Details

Date: 13 January 2026
Orbit: 754 x 761 km, 74.0° (Epoch: 10 February)

Event Time Altitude Azimuth Distance (km) Brightness Sun altitude
Rises 02:05:26 0° 183° (S) 3,190 7.4 -21.7°
Reaches altitude 10° 02:07:50 10° 178° (S) 2,269 6.5 -22.2°
Enters shadow 02:12:18 50° 124° (ESE) 958 4.2 -23.1°
